EW3230 Weather Reports


Display with metric or nautical units.
time (UTC)temp
F
wind
direction
speed
MPH
gust
MPH
rain 1hr
in
rain 24hr
in
rain mn
in
humidity
%
barometer
mb
20260508173635 63 189 2.0 6.0 0.00 0.00 0.00 44 1008.8
20260508172635 63 134 2.0 5.0 0.00 0.00 0.00 42 1009.0
20260508172135 65 237 2.0 9.0 0.00 0.00 0.00 40 1009.1
20260508170633 65 155 2.0 7.0 0.00 0.00 0.00 35 1009.1
20260508170139 64 255 1.0 6.0 0.00 0.00 0.00 36 1009.1
20260508165135 64 287 1.0 7.0 0.00 0.00 0.00 36 1009.4
20260508163634 64 347 1.0 6.0 0.00 0.00 0.00 34 1009.5
20260508162633 64 221 2.0 8.0 0.00 0.00 0.00 36 1009.5
20260508161629 63 239 0.0 4.0 0.00 0.00 0.00 35 1009.6
20260508160629 62 69 1.0 4.0 0.00 0.00 0.00 35 1009.7
20260508155628 62 115 2.0 8.0 0.00 0.00 0.00 35 1009.9
20260508154628 61 272 2.0 8.0 0.00 0.00 0.00 36 1009.8
20260508153630 61 302 1.0 8.0 0.00 0.00 0.00 36 1009.9
20260508152641 62 236 1.0 4.0 0.00 0.00 0.00 35 1010.0
20260508151629 60 314 1.0 7.0 0.00 0.00 0.00 38 1010.1
20260508150629 60 263 1.0 6.0 0.00 0.00 0.00 37 1010.2
20260508150131 60 250 1.0 7.0 0.00 0.00 0.00 35 1010.4
20260508144622 60 351 1.0 6.0 0.00 0.00 0.00 37 1010.4
20260508144124 60 253 1.0 7.0 0.00 0.00 0.00 38 1010.4
20260508142624 60 287 1.0 10.0 0.00 0.00 0.00 36 1010.5
20260508141622 60 232 1.0 5.0 0.00 0.00 0.00 37 1010.5
20260508140622 59 280 2.0 6.0 0.00 0.00 0.00 39 1010.5
20260508140122 59 304 1.0 4.0 0.00 0.00 0.00 38 1010.6
20260508134622 58 287 1.0 7.0 0.00 0.00 0.00 44 1010.6
20260508133621 58 101 0.0 3.0 0.00 0.00 0.00 41 1010.6